Location: Bonneuil
(46.1010°N, 2.9693°E)
Time: 00:41:31
(UTC+00:00)

ISS - Pass Details

Date: 11 March 2021
Orbit: 418 x 422 km, 51.6° (Epoch: 10 April)

Event Time Altitude Azimuth Distance (km) Brightness Sun altitude
Exits shadow 04:00:31 43° 114° (ESE) 594 -2.8 -22.7°
Drops below altitude 10° 04:02:54 10° 117° (ESE) 1,494 -0.4 -22.3°
Sets 04:04:59 0° 118° (ESE) 2,355 0.7 -21.9°
